Theta_e
317 319 320 320 320 320 320 320 320 320 319 319 318 317 317 316 316 315 315 315 318 320 319 319 320 321 320 320 320 320 314 312 316 317 317 321 318 323 323 324 324 324 327 327 340
312 319 320 320 320 320 320 320 320 320 320 319 318 317 317 316 316 315 316 315 318 318 317 319 320 319 320 320 320 317 312 314 315 317 318 319 319 320 321 321 323 324 326 333 340
308 315 320 320 320 320 321 320 320 320 320 319 318 317 316 316 316 318 316 316 318 317 315 319 320 320 318 318 319 318 316 314 318 321 320 319 320 321 320 319 322 322 322 332 339
308 309 317 320 320 321 321 320 320 320 319 319 318 317 316 316 313 318 318 317 315 314 317 319 317 317 316 316 317 316 317 318 319 321 319 317 320 320 321 321 322 322 322 322 331
312 308 312 319 320 320 320 320 320 320 319 318 317 316 315 316 316 315 317 318 316 315 314 312 316 317 316 317 319 318 317 319 320 319 320 320 319 319 320 322 322 322 322 322 322
318 310 308 315 320 320 320 320 320 320 319 318 317 316 315 317 315 316 317 316 316 313 313 316 317 317 318 318 318 318 319 319 321 321 321 319 319 320 322 321 321 322 322 322 323
321 314 309 310 318 320 320 320 320 319 318 317 316 315 314 315 315 316 316 316 315 315 316 317 318 319 318 317 318 318 318 318 320 321 320 321 319 320 322 323 323 323 322 324 325
323 318 311 309 315 320 320 320 319 319 318 317 315 314 314 314 314 315 316 315 315 315 316 317 317 317 318 317 317 317 317 318 319 320 320 320 320 320 324 323 325 322 322 324 325
323 321 315 310 310 319 320 319 319 318 317 315 314 314 315 315 315 314 314 315 315 315 316 315 315 317 317 316 316 317 315 318 318 319 319 320 321 321 325 324 324 324 324 324 325
321 323 317 312 309 318 319 319 318 317 316 314 314 315 314 315 315 315 315 315 316 316 316 317 317 316 314 315 313 317 319 318 319 321 320 320 320 319 323 324 324 325 325 325 325
319 323 320 315 310 318 319 318 316 315 315 314 314 314 314 314 316 316 317 317 316 316 314 316 316 316 316 315 314 318 318 318 317 318 321 322 321 320 321 322 322 324 323 324 325
316 322 322 316 313 317 318 317 315 316 316 314 313 315 314 316 317 318 319 319 315 314 315 319 318 317 317 318 318 318 319 319 318 319 322 322 324 321 321 322 325 324 324 325 322
314 321 323 317 314 317 316 316 314 317 317 318 317 315 314 314 316 317 318 320 318 315 316 318 320 320 319 319 320 319 320 320 320 322 323 323 325 323 322 323 325 325 324 326 327
315 319 322 317 315 316 316 314 315 316 312 314 318 318 317 317 317 315 318 320 321 319 321 320 320 321 321 321 320 321 321 322 323 325 327 324 329 325 322 323 322 323 327 329 329
315 317 322 317 315 316 315 313 316 314 309 313 317 315 317 317 315 315 315 320 320 321 323 323 323 323 323 324 323 323 324 324 325 324 324 324 325 324 324 324 323 319 325 329 328
316 316 321 319 315 314 311 312 314 310 311 313 317 319 318 317 315 315 316 320 320 319 319 319 320 321 323 323 322 323 324 324 323 323 328 325 325 327 323 322 326 323 327 329 329
315 315 321 318 316 314 312 314 314 309 312 313 317 318 318 318 316 317 314 319 317 320 320 319 319 319 319 320 321 323 323 327 327 327 329 325 326 326 324 321 325 326 327 327 327
313 316 320 318 317 314 314 315 314 314 313 319 319 318 318 317 317 318 314 316 317 315 319 319 320 318 319 319 322 323 324 327 331 329 327 325 327 324 322 323 326 327 328 328 328
311 315 318 318 317 314 317 315 313 313 313 314 321 319 321 319 318 319 318 315 315 315 318 321 321 320 320 319 320 323 325 323 326 325 326 324 322 324 325 324 324 325 327 328 328
311 314 317 318 317 315 316 315 314 314 312 313 323 325 324 323 323 319 321 322 322 315 317 324 326 325 325 322 321 322 323 326 325 329 331 325 324 321 326 325 324 324 327 328 329
312 316 316 315 316 316 316 315 314 314 315 312 314 320 326 325 325 321 323 323 322 324 315 318 325 326 324 326 327 324 325 324 325 323 324 323 322 318 325 324 323 322 324 325 324
311 315 317 318 317 315 314 313 313 313 313 317 320 317 321 325 326 326 325 325 322 323 325 318 322 325 326 323 324 324 325 325 326 325 321 320 322 323 323 321 317 318 321 321 320
310 310 317 318 314 313 310 314 313 314 314 316 319 321 319 324 326 326 326 322 319 320 324 325 327 330 329 326 324 326 325 324 322 322 323 322 321 319 318 316 318 318 319 318 317
309 309 306 309 310 310 310 313 314 313 314 316 316 319 321 323 324 325 326 323 320 319 319 322 326 329 330 325 324 324 324 324 325 325 322 322 322 321 320 318 315 315 317 318 321
309 305 307 307 309 311 311 311 313 315 314 315 317 318 321 322 323 324 322 320 320 319 319 320 324 324 326 321 321 324 322 321 321 320 321 319 319 318 314 313 314 315 316 318 318
305 305 307 307 309 312 310 311 314 313 313 314 316 317 319 321 321 322 322 319 319 320 319 317 317 317 318 321 320 321 320 319 320 320 318 317 316 310 310 311 310 311 312 312 313
308 307 310 308 309 311 310 311 313 313 308 314 316 317 317 317 315 316 317 316 316 318 318 316 315 314 320 316 315 318 317 316 317 317 319 319 317 309 309 308 306 305 307 306 305
Wind_Speed
42 40 37 34 31 28 25 22 19 17 15 14 14 13 14 16 14 12 13 8 6 6 5 3 2 4 8 6 8 3 3 3 4 3 6 15 10 15 6 1 3 2 5 7 14
44 42 40 36 33 30 27 24 21 18 16 15 14 14 14 16 15 12 8 10 8 8 6 7 2 4 4 4 4 4 4 10 7 4 4 10 5 13 8 8 7 6 6 2 17
44 44 42 39 35 32 29 25 23 20 17 15 14 13 12 13 14 1 4 0 6 8 8 5 1 4 3 4 4 3 6 5 12 21 18 7 15 8 8 2 3 8 17 9 17
44 45 44 41 37 33 30 26 23 21 18 16 15 13 11 8 4 3 4 4 0 6 5 6 1 3 2 2 4 5 7 9 14 24 11 5 12 6 15 18 19 19 21 18 18
43 46 45 42 39 35 31 27 23 20 19 16 15 14 10 7 17 11 9 8 5 6 7 4 3 2 2 4 10 5 5 15 19 18 14 15 10 5 25 29 23 23 25 25 25
42 45 45 43 40 36 31 27 24 21 18 16 15 14 9 7 10 9 7 8 7 8 6 5 3 7 9 3 1 10 16 17 16 21 18 6 12 3 33 38 30 29 30 28 34
44 43 44 42 40 36 32 27 24 21 18 16 15 14 14 24 9 10 13 10 6 9 7 9 3 5 1 4 11 10 7 9 10 8 12 4 9 8 36 32 33 36 37 21 21
46 42 42 42 39 36 31 27 24 21 18 16 14 13 13 20 14 27 19 17 12 10 10 11 7 2 2 6 9 5 2 4 3 3 6 9 7 14 19 12 20 19 16 20 13
47 42 40 41 38 35 31 26 23 20 17 14 11 8 14 14 19 23 22 26 23 18 14 10 5 3 1 2 4 4 4 5 10 8 5 6 6 6 13 13 18 22 24 19 20
44 44 40 39 37 35 31 25 21 18 15 11 10 4 19 10 9 10 19 22 15 9 10 9 5 3 2 4 7 6 5 5 6 5 3 11 8 6 10 13 20 26 31 32 30
33 44 40 38 39 37 34 27 12 7 19 14 13 13 5 8 5 9 11 15 14 11 7 10 4 9 21 15 8 3 3 7 7 12 5 12 8 9 11 14 16 23 27 33 40
21 45 40 37 41 40 38 36 27 1 8 31 32 21 19 6 3 11 13 11 9 7 6 2 13 19 4 9 11 11 12 16 10 13 6 9 19 7 6 13 26 29 28 35 20
31 46 41 38 40 40 43 35 17 5 3 10 25 35 36 27 13 17 21 11 6 9 14 12 8 16 13 14 13 16 16 14 13 6 5 7 18 6 7 10 25 28 27 8 19
48 47 45 41 42 45 45 35 16 7 3 6 10 15 27 26 12 37 25 16 6 14 7 12 15 10 14 14 14 16 11 14 8 1 8 3 18 12 6 12 13 10 16 22 21
56 44 52 53 41 50 45 38 12 11 2 7 11 12 19 26 15 24 40 26 10 10 7 9 8 15 18 19 18 10 7 9 6 4 1 5 5 2 10 18 21 11 21 22 19
55 46 54 52 42 47 39 40 17 5 10 5 12 10 13 18 6 10 32 23 15 5 13 9 7 7 6 7 13 3 4 2 2 3 10 7 7 30 4 6 5 4 27 23 19
55 39 58 59 46 48 43 36 5 5 3 7 7 11 13 11 11 7 20 20 13 8 20 15 25 13 4 4 6 6 5 2 3 1 10 9 8 20 14 8 5 10 20 18 16
56 40 58 61 45 48 53 13 5 19 16 3 11 18 13 9 10 10 19 19 21 6 2 12 9 20 18 22 12 12 11 6 7 6 4 8 6 6 10 12 11 18 17 16 14
52 34 52 49 52 58 45 18 16 9 22 4 14 13 7 7 8 12 13 19 21 23 11 7 7 4 7 18 21 8 14 11 4 3 0 5 5 5 6 9 9 15 17 13 9
53 37 41 45 56 63 23 19 17 6 14 21 13 10 15 14 10 15 15 12 12 26 17 4 9 6 4 7 12 19 8 6 4 7 12 5 6 5 5 8 7 7 14 14 12
38 17 27 45 64 52 20 31 10 4 8 20 22 6 7 12 14 12 11 9 22 17 26 16 5 6 3 10 15 7 13 6 7 5 5 3 6 7 13 9 8 6 10 7 7
19 5 35 52 12 17 18 37 24 17 10 5 2 10 11 11 19 16 17 9 7 10 22 18 7 18 21 8 10 19 18 18 9 6 5 5 5 1 10 8 11 10 13 11 6
11 8 44 44 13 12 1 15 20 17 20 8 4 4 7 8 5 11 10 7 9 4 10 14 7 10 8 14 12 15 17 17 5 4 10 6 5 3 8 8 9 8 7 6 5
11 4 3 16 16 14 10 14 12 28 11 6 13 10 2 8 3 5 8 5 4 5 10 4 9 13 16 6 9 6 14 14 13 7 6 7 7 3 5 8 7 10 12 14 14
15 2 6 5 9 14 17 17 21 9 13 16 9 22 11 6 15 8 3 4 4 10 3 5 7 8 11 3 7 7 9 6 4 4 7 2 5 7 5 6 5 14 18 18 18
12 6 5 6 17 21 18 16 26 8 15 7 16 18 17 12 9 8 12 5 4 5 6 1 5 3 2 5 1 6 5 6 7 8 8 9 5 7 9 11 12 13 13 17 16
12 16 14 9 10 13 10 13 20 15 2 15 17 7 22 25 5 8 10 11 10 5 1 6 5 4 5 7 2 5 13 7 5 6 5 7 8 11 6 7 10 14 14 14 11
Wind_Direction
229 225 226 229 228 230 234 235 239 246 256 266 278 290 299 302 300 292 283 254 247 255 281 258 273 297 263 256 235 208 81 211 239 194 284 339 7 341 342 305 251 268 219 260 199
232 226 225 224 229 230 232 237 239 245 253 263 275 286 298 305 309 300 279 251 242 248 264 236 189 349 217 249 227 166 163 211 206 196 255 307 316 315 320 318 286 289 342 216 190
234 230 224 225 224 229 232 234 241 246 253 262 272 281 295 309 316 227 59 354 237 247 214 221 224 319 268 264 233 227 223 218 257 266 276 265 291 279 263 199 188 296 309 201 212
231 230 228 223 224 225 230 235 238 244 253 261 270 278 289 294 262 170 347 359 47 173 173 198 211 334 279 257 256 297 275 254 272 276 290 246 273 281 276 277 291 291 286 283 225
230 230 227 224 222 223 226 231 237 242 248 259 269 278 288 254 248 256 287 283 245 203 220 277 257 250 253 288 316 226 279 304 301 293 283 281 272 267 283 281 278 277 278 276 275
230 228 227 224 222 222 224 227 232 237 243 251 263 273 274 259 256 222 232 247 239 241 227 196 233 261 291 273 213 317 313 299 302 295 290 261 293 326 282 280 283 278 272 271 271
229 227 225 223 221 220 222 224 229 235 241 246 256 267 259 245 223 204 224 232 224 225 217 210 237 222 225 302 337 311 307 313 293 286 279 56 306 256 275 289 290 282 278 267 276
226 225 223 222 218 217 219 222 225 231 239 248 255 271 260 264 251 240 231 235 221 212 244 238 250 294 262 309 346 321 275 299 234 320 290 147 257 272 312 301 338 310 287 252 259
226 223 222 216 215 212 214 217 221 227 233 241 253 254 270 258 240 246 231 233 240 240 246 258 265 173 108 88 3 272 253 230 308 205 235 165 240 258 321 336 333 322 312 290 253
221 220 218 213 208 206 206 209 212 219 222 228 223 281 248 237 251 239 221 229 217 209 227 223 206 114 209 146 225 203 213 232 232 258 310 296 237 257 290 318 310 308 305 298 289
209 218 216 210 203 198 195 183 178 214 208 201 210 199 287 175 190 209 174 167 185 190 189 180 143 202 215 203 228 247 245 255 256 271 300 283 280 278 293 304 293 299 299 299 292
219 216 211 207 200 197 199 191 189 209 238 234 238 241 235 232 345 210 190 166 164 194 171 154 223 224 219 214 221 244 259 264 278 263 256 289 287 271 289 281 290 288 296 299 284
224 214 204 202 196 196 199 197 194 236 249 230 229 231 233 237 225 227 194 193 189 187 190 204 203 211 206 225 227 232 228 248 246 282 266 301 279 237 249 264 282 285 287 190 147
221 213 199 193 191 192 196 180 166 165 267 256 202 233 214 218 248 222 206 188 214 200 211 233 235 228 207 229 207 243 219 243 261 313 273 141 294 269 219 271 277 216 164 140 140
226 212 199 192 184 188 189 175 129 120 261 205 186 197 196 181 147 204 205 204 194 187 172 224 185 214 222 217 213 234 208 221 200 221 262 171 279 187 315 294 282 189 174 155 158
227 214 200 188 189 185 179 171 167 78 237 245 151 163 151 198 221 151 186 200 219 221 256 227 273 186 203 256 219 242 193 180 84 123 261 176 197 284 208 222 291 136 161 161 161
222 210 203 186 178 179 169 160 126 176 191 196 169 158 157 172 207 165 180 193 181 180 232 243 248 247 268 323 263 190 127 267 301 190 257 181 224 253 274 244 208 166 164 161 151
226 210 210 186 179 171 160 162 176 218 206 150 159 159 182 144 205 194 170 199 213 222 148 197 256 210 211 218 209 212 190 180 209 213 237 198 239 249 258 188 180 175 164 153 151
219 217 193 176 171 170 159 179 207 183 185 243 145 173 203 182 159 184 185 200 205 203 191 180 252 181 181 211 196 206 214 196 271 117 323 229 275 326 18 91 148 164 161 162 159
206 201 192 179 168 168 171 201 210 136 162 201 188 179 184 185 166 189 181 211 210 202 209 223 276 189 218 190 222 213 158 170 192 195 231 242 224 213 166 151 154 145 170 188 193
201 206 202 199 169 174 189 210 182 169 120 195 230 200 195 184 192 194 198 217 200 193 200 223 231 219 144 206 199 189 214 199 181 170 166 176 248 198 184 172 166 177 184 164 99
203 190 181 179 186 185 188 205 222 206 256 223 360 233 219 182 199 194 209 172 152 191 202 203 226 249 238 268 208 201 206 195 199 207 185 160 267 284 147 127 130 137 121 119 109
186 160 174 179 187 179 117 195 215 208 216 196 232 253 213 191 201 225 202 129 144 129 197 191 214 246 252 250 237 213 206 195 118 126 204 170 253 110 106 113 130 149 126 91 344
179 126 168 196 152 166 159 190 196 203 205 187 214 249 173 200 217 167 230 190 161 107 125 174 195 222 232 280 168 195 192 200 206 193 176 205 211 225 339 104 83 85 78 87 68
194 169 194 158 161 174 183 167 191 169 201 196 199 212 217 216 210 203 150 100 159 160 104 143 201 235 230 30 339 175 144 142 155 144 190 147 175 268 49 130 110 100 96 93 88
140 182 91 133 156 171 180 192 190 186 174 210 210 205 214 220 209 190 185 162 165 237 144 253 158 121 265 185 24 268 213 193 175 187 207 227 218 121 129 114 81 82 97 96 96
183 152 151 151 159 163 193 187 197 173 247 205 207 177 211 230 219 166 154 143 150 172 54 144 132 149 197 136 101 273 234 232 208 185 167 239 245 157 146 132 128 119 114 107 98